User: anonymous   Login
Location: Unspecified
(35.7250°N, 0.0000°E)
Time: 20:18:27
(UTC+00:00)
Language:

Gurwin Techsat 1B - Orbit

View from above orbital plane
View from above orbital plane
View from above satellite
View from above satellite

Ground track
Ground track

The orbit data is extracted from the following two-line orbital elements,

1 25397U 98043D   19234.41845893 -.00000012  00000-0  13778-4 0  9995
2 25397  98.6909 173.7875 0001162 153.6845 206.4393 14.23669214 97088
Epoch (UTC): 22 August 2019 10:02:34
Eccentricity: 0.0001162
inclination: 98.6909°
perigee height: 812 km
apogee height: 814 km
right ascension of ascending node: 173.7875°
argument of perigee: 153.6845°
revolutions per day: 14.23669214
mean anomaly at epoch: 206.4393°
orbit number at epoch: 9708

The dashed part of the orbit path shows where the satellite is in the earth's shadow,  

DLR